Weather Roundup
Issued by NWS Springfield, MO

Home | Current Version | Previous Version | Text Only | Print | Product List | Glossary On
Versions: 1 2 3 4 5 6 7 8 9 10 11 12 13 14 15 16 17 18 19 20 21 22 23 24 25 26 27 28 29 30 31 32 33 34 35 36 37 38 39 40 41 42 43 44 45 46 47 48 49 50
000
NZUS99 KSGF 220357
HRRSGF

HOURLY WEATHER
NATIONAL WEATHER SERVICE SPRINGFIELD MO
1100 PM CDT SAT OCT 21 2017

......SGF CWA......

CITY           SKY/WX    TMP DP  RH WIND       PRES   REMARKS
SPRINGFIELD    CLOUDY    71  67  87 S15       29.91F
JOPLIN         CLOUDY    65  59  81 W18G35    29.94R
WEST PLAINS    CLOUDY    73  61  65 S12       30.00R
ROLLA          CLOUDY    71  63  75 S13       29.96F
OSAGE BEACH    CLOUDY    70  66  88 S6        29.93F

......SURROUNDING SGF CWA......

CITY           SKY/WX    TMP DP  RH WIND       PRES   REMARKS
CHANUTE        RAIN      57  55  93 N16G22    29.92F
PARSONS        TSTM      58  56  93 N9        29.94F
COFFEYVILLE    RAIN      58  57  97 N13       29.93R
EMPORIA        LGT RAIN  52  49  89 NW9       29.99R
HARRISON AR    MOCLDY    72  66  81 S13G21    29.94F

......KANSAS AND MISSOURI......

CITY           SKY/WX    TMP DP  RH WIND       PRES   REMARKS
KANSAS CTY INT TSTM      54  54 100 NW12      29.95R FOG
DOWNTOWN KC    LGT RAIN  57  55  94 NW14      29.92S
SEDALIA        CLOUDY    73  66  78 S18       29.87F
ST JOSEPH      RAIN      53  53 100 N8        29.98R
ST LOUIS       MOCLDY    73  61  65 SE15G24   30.00R
KIRKSVILLE     LGT RAIN  64  61  88 NW12      29.90R
WICHITA        CLOUDY    57  47  69 N12       30.01R
TOPEKA         RAIN      53  52  96 NW6       29.99R
OLATHE         RAIN      54  54 100 NW10      29.96R

......TENNESSEE......

CITY           SKY/WX    TMP DP  RH WIND       PRES   REMARKS
MEMPHIS        NOT AVBL
NASHVILLE      MOCLDY    67  52  58 SE10      30.18F

......ARKANSAS.......

CITY           SKY/WX    TMP DP  RH WIND       PRES   REMARKS
FAYETTEVILLE   MOCLDY    73  68  84 SE13G23   29.90S
FT SMITH       CLOUDY    73  68  84 E8        29.89R
LITTLE ROCK    MOCLDY    72  69  90 SE14      29.97S

......OKLAHOMA.......

CITY           SKY/WX    TMP DP  RH WIND       PRES   REMARKS
TULSA          TSTM      60  59  96 W12       29.95R FOG
PONCA CITY     TSTM      56  51  84 N12       29.99R
MCALESTER      CLOUDY    80  67  64 S13G22    29.82F
OKLAHOMA CITY  TSTM      57  55  93 N22G30    29.89F

......IOWA............

CITY           SKY/WX    TMP DP  RH WIND       PRES   REMARKS
DES MOINES     NOT AVBL
QUAD CITIES    CLEAR     72  58  61 S16G24    29.89R

......ILLINOIS........

CITY           SKY/WX    TMP DP  RH WIND       PRES   REMARKS
QUINCY         MOCLDY    73  61  65 S14       29.92S
CHICAGO        CLOUDY    69  55  60 S18       30.00R




USA.gov is the U.S. government's official web portal to all federal, state and local government web resources and services.